{"data":{"norad_id":66845,"epoch":"2026-05-25T03:48:48.542688Z","epoch_age_seconds":55086,"freshness":"FRESH","line1":"1 66845U 25280AA  26145.15889517  .00005694  00000+0  48419-3 0  9990","line2":"2 66845  70.0003 141.5091 0004137 248.2932 111.7787 14.98359811 27535","mean_motion":14.98359811,"eccentricity":0.0004137,"inclination_deg":70.0003,"raan_deg":141.5091,"arg_perigee_deg":248.2932,"mean_anomaly_deg":111.7787,"bstar":0.00048419,"rev_number":2753,"period_min":96.105087004366,"perigee_km":569.08844775308,"apogee_km":574.83896107591,"semimajor_km":6950.1007044145,"source":"CELESTRAK","updated_at":"2026-05-25T13:38:21.339051Z"}}